Weather History for Glenwood, MN

Change the Weather History Date:

Thursday, November 29, 2012

  Actual Average Record
Temperature  
Mean Temperature 26 °F -  
Max Temperature 32 °F 30 °F 53 °F (1998)
Min Temperature 21 °F 14 °F -12 °F (1958)
Degree Days  
Heating Degree Days 38    
Moisture  
Dew Point 24 °F    
Average Humidity 90    
Maximum Humidity 100    
Minimum Humidity 80    
Precipitation  
Precipitation 0.00 in - - ()
Sea Level Pressure  
Sea Level Pressure 30.06 in    
Wind  
Wind Speed 9 mph (NE)    
Max Wind Speed 21 mph    
Max Gust Speed 25 mph    
Visibility 7 miles    
Events      
Averages and records for this station are not official NWS values.
T = Trace of Precipitation, MM = Missing Value Source: NWS Daily Summary

Daily Weather History Graph

Daily Weather History Graph

Search for Another Location

Airport:

Trip Planner

Search our weather history database for the weather conditions in past years. The results will help you decide how hot, cold, wet, or windy it might be!

Date:

Astronomy

Nov. 29, 2012 Rise Set
Actual Time 7:39 AM CST 4:39 PM CST
Civil Twilight 7:06 AM CST 5:13 PM CST
Nautical Twilight 6:29 AM CST 5:50 PM CST
Astronomical Twilight 5:53 AM CST 6:25 PM CST
Moon 5:43 PM CST (11/29) 8:27 AM CST (11/29)
Length of Visible Light 10h 06m
Length of Day
8h 59m
Full, 99% of the Moon is Illuminated
Nov 29
Full
Dec 6
Last Quarter
Dec 13
New
Dec 19
First Quarter
Dec 28
Full

Hourly Weather History & Observations

Time (CST) Temp. Windchill Dew Point Humidity Pressure Visibility Wind Dir Wind Speed Gust Speed Precip Events Conditions
12:13 AM 26.6 °F - 24.8 °F 93% 30.03 in 10.0 mi Calm Calm - N/A   Clear
12:34 AM 26.6 °F - 23.0 °F 86% 30.03 in 10.0 mi Calm Calm - N/A   Clear
12:53 AM 24.8 °F - 23.0 °F 93% 30.03 in 10.0 mi Calm Calm - N/A   Clear
1:13 AM 24.8 °F 20.5 °F 23.0 °F 93% 30.04 in 7.0 mi NNE 3.5 mph - N/A   Clear
1:34 AM 24.8 °F 19.1 °F 23.0 °F 93% 30.02 in 7.0 mi NNE 4.6 mph - N/A   Clear
1:53 AM 24.8 °F 19.1 °F 24.8 °F 100% 30.03 in 7.0 mi NNE 4.6 mph - N/A   Clear
2:13 AM 24.8 °F 19.1 °F 23.0 °F 93% 30.04 in 7.0 mi NE 4.6 mph - N/A   Clear
2:34 AM 24.8 °F 20.5 °F 21.2 °F 86% 30.04 in 7.0 mi NE 3.5 mph - N/A   Clear
2:53 AM 23.0 °F 17.0 °F 21.2 °F 93% 30.04 in 7.0 mi NE 4.6 mph - N/A   Clear
3:13 AM 23.0 °F 18.4 °F 21.2 °F 93% 30.04 in 7.0 mi NNE 3.5 mph - N/A   Clear
3:34 AM 21.2 °F 13.6 °F 19.4 °F 93% 30.04 in 5.0 mi NNE 5.8 mph - N/A   Clear
3:53 AM 21.2 °F 12.6 °F 19.4 °F 93% 30.03 in 7.0 mi NE 6.9 mph - N/A   Clear
4:13 AM 21.2 °F 13.6 °F 19.4 °F 93% 30.03 in 7.0 mi NE 5.8 mph - N/A   Clear
4:34 AM 21.2 °F 13.6 °F 19.4 °F 93% 30.03 in 7.0 mi NNE 5.8 mph - N/A   Clear
4:53 AM 21.2 °F 12.6 °F 21.2 °F 100% 30.03 in 7.0 mi NNE 6.9 mph - N/A   Clear
5:13 AM 23.0 °F 14.7 °F 21.2 °F 93% 30.04 in 7.0 mi NNE 6.9 mph - N/A   Clear
5:53 AM 21.2 °F 10.1 °F 21.2 °F 100% 30.05 in 7.0 mi NE 10.4 mph - N/A   Clear
6:13 AM 21.2 °F 10.1 °F 21.2 °F 100% 30.05 in 7.0 mi NNE 10.4 mph - N/A   Clear
6:34 AM 21.2 °F 9.5 °F 21.2 °F 100% 30.05 in 5.0 mi NNE 11.5 mph - N/A   Clear
6:53 AM 21.2 °F 10.1 °F 21.2 °F 100% 30.06 in 5.0 mi NNE 10.4 mph - N/A   Clear
7:13 AM 21.2 °F 9.5 °F 19.4 °F 93% 30.06 in 5.0 mi NE 11.5 mph - N/A   Clear
7:34 AM 21.2 °F 8.9 °F 21.2 °F 100% 30.06 in 5.0 mi NE 12.7 mph - N/A   Clear
7:53 AM 21.2 °F 10.1 °F 21.2 °F 100% 30.07 in 4.0 mi NE 10.4 mph - N/A   Clear
8:13 AM 23.0 °F 11.7 °F 21.2 °F 93% 30.07 in 4.0 mi NE 11.5 mph - N/A   Clear
8:34 AM 24.8 °F 13.4 °F 23.0 °F 93% 30.07 in 3.0 mi NE 12.7 mph - N/A   Clear
8:53 AM 24.8 °F 13.4 °F 24.8 °F 100% 30.07 in 4.0 mi ENE 12.7 mph - N/A   Clear
9:13 AM 26.6 °F 14.7 °F 24.8 °F 93% 30.07 in 4.0 mi ENE 15.0 mph - N/A   Clear
9:33 AM 26.6 °F 15.7 °F 24.8 °F 93% 30.08 in 4.0 mi ENE 12.7 mph - N/A   Clear
9:53 AM 28.4 °F 16.6 °F 26.6 °F 93% 30.08 in 5.0 mi ENE 16.1 mph - N/A   Clear
10:14 AM 28.4 °F 16.6 °F 26.6 °F 93% 30.08 in 5.0 mi ENE 16.1 mph - N/A   Clear
10:33 AM 30.2 °F 19.3 °F 26.6 °F 86% 30.09 in 5.0 mi ENE 15.0 mph - N/A   Clear
10:53 AM 30.2 °F 18.1 °F 26.6 °F 86% 30.09 in 7.0 mi ENE 18.4 mph - N/A   Clear
11:14 AM 32.0 °F 22.1 °F 26.6 °F 80% 30.09 in 7.0 mi ENE 13.8 mph - N/A   Clear
11:34 AM 30.2 °F 18.9 °F 26.6 °F 86% 30.09 in 7.0 mi ENE 16.1 mph - N/A   Clear
11:53 AM 30.2 °F 18.5 °F 26.6 °F 86% 30.07 in 7.0 mi ENE 17.3 mph - N/A   Clear
12:14 PM 30.2 °F 18.9 °F 24.8 °F 80% 30.08 in 7.0 mi ENE 16.1 mph - N/A   Clear
12:33 PM 30.2 °F 18.5 °F 26.6 °F 86% 30.07 in 7.0 mi ENE 17.3 mph - N/A   Clear
12:53 PM 32.0 °F 20.5 °F 26.6 °F 80% 30.06 in 7.0 mi ENE 18.4 mph - N/A   Clear
1:14 PM 32.0 °F 20.5 °F 26.6 °F 80% 30.04 in 7.0 mi ENE 18.4 mph - N/A   Clear
1:33 PM 32.0 °F 21.2 °F 26.6 °F 80% 30.05 in 7.0 mi ENE 16.1 mph - N/A   Clear
1:53 PM 32.0 °F 21.2 °F 26.6 °F 80% 30.04 in 7.0 mi ENE 16.1 mph - N/A   Clear
2:14 PM 32.0 °F 22.1 °F 26.6 °F 80% 30.04 in 7.0 mi ENE 13.8 mph 18.4 mph N/A   Clear
2:33 PM 30.2 °F 19.3 °F 26.6 °F 86% 30.03 in 7.0 mi ENE 15.0 mph 19.6 mph N/A   Clear
2:53 PM 30.2 °F 18.9 °F 26.6 °F 86% 30.04 in 7.0 mi ENE 16.1 mph - N/A   Clear
3:14 PM 30.2 °F 19.3 °F 26.6 °F 86% 30.02 in 7.0 mi ENE 15.0 mph - N/A   Clear
3:33 PM 30.2 °F 20.8 °F 26.6 °F 86% 30.04 in 7.0 mi ENE 11.5 mph - N/A   Clear
3:53 PM 30.2 °F 18.9 °F 26.6 °F 86% 30.04 in 7.0 mi ENE 16.1 mph 21.9 mph N/A   Clear
4:14 PM 30.2 °F 19.3 °F 26.6 °F 86% 30.03 in 7.0 mi ENE 15.0 mph - N/A   Clear
4:33 PM 30.2 °F 20.2 °F 24.8 °F 80% 30.05 in 7.0 mi ENE 12.7 mph 18.4 mph N/A   Clear
4:53 PM 28.4 °F 19.7 °F 24.8 °F 86% 30.06 in 7.0 mi NE 9.2 mph - N/A   Clear
5:14 PM 28.4 °F 19.1 °F 24.8 °F 86% 30.07 in 10.0 mi NE 10.4 mph - N/A   Clear
5:33 PM 28.4 °F 20.4 °F 24.8 °F 86% 30.08 in 7.0 mi NE 8.1 mph - N/A   Clear
5:53 PM 28.4 °F 18.0 °F 24.8 °F 86% 30.07 in 10.0 mi NE 12.7 mph - N/A   Clear
6:13 PM 26.6 °F 16.2 °F 24.8 °F 93% 30.07 in 10.0 mi ENE 11.5 mph - N/A   Clear
6:33 PM 28.4 °F 18.0 °F 24.8 °F 86% 30.07 in 10.0 mi ENE 12.7 mph - N/A   Clear
6:54 PM 28.4 °F 17.5 °F 24.8 °F 86% 30.06 in 10.0 mi ENE 13.8 mph - N/A   Clear
7:13 PM 28.4 °F 16.2 °F 24.8 °F 86% 30.06 in 10.0 mi East 17.3 mph - N/A   Scattered Clouds
7:33 PM 28.4 °F - 24.8 °F 86% 30.07 in - Calm Calm - N/A   Scattered Clouds
7:54 PM 28.4 °F 17.5 °F 26.6 °F 93% 30.07 in 10.0 mi ENE 13.8 mph 19.6 mph N/A   Mostly Cloudy
8:13 PM 28.4 °F 17.5 °F 26.6 °F 93% 30.07 in 10.0 mi ENE 13.8 mph - N/A   Mostly Cloudy
8:33 PM 28.4 °F 15.1 °F 26.6 °F 93% 30.07 in 10.0 mi ENE 20.7 mph 24.2 mph N/A   Mostly Cloudy
8:54 PM 28.4 °F 15.1 °F 24.8 °F 86% 30.08 in 10.0 mi East 20.7 mph 25.3 mph N/A   Mostly Cloudy
9:13 PM 28.4 °F 16.2 °F 26.6 °F 93% 30.07 in 10.0 mi ENE 17.3 mph 20.7 mph N/A   Mostly Cloudy
9:33 PM 28.4 °F 18.0 °F 24.8 °F 86% 30.09 in 10.0 mi ENE 12.7 mph - N/A   Overcast
9:54 PM 26.6 °F 15.2 °F 24.8 °F 93% 30.10 in 10.0 mi East 13.8 mph - N/A   Overcast
10:13 PM 26.6 °F 15.2 °F 24.8 °F 93% 30.10 in 10.0 mi ENE 13.8 mph - N/A   Overcast
10:54 PM 26.6 °F 15.2 °F 24.8 °F 93% 30.11 in 10.0 mi ENE 13.8 mph - N/A   Overcast
11:13 PM 26.6 °F 14.7 °F 24.8 °F 93% 30.10 in 10.0 mi ENE 15.0 mph - N/A   Overcast
11:33 PM 26.6 °F 15.2 °F 24.8 °F 93% 30.09 in 10.0 mi ENE 13.8 mph 18.4 mph N/A   Mostly Cloudy
11:54 PM 26.6 °F 15.2 °F 24.8 °F 93% 30.11 in 10.0 mi ENE 13.8 mph - N/A   Mostly Cloudy